Погода в Безбожнике

Россия / Кировская область     59°30′34″N   48°48′21″E
темп.,
°C
ветер,
м/с
пор.,
м/с
влажн.,
%
обл.,
%
осадки,
мм/ч
давл.,
гПа
погр.,
м
25 января, пн
пн2500:000ююз4998100 0.0 1018412
03:000ююз4998100 0.1 1018417
06:000ююз4998100 0.1 1017416
09:00+1ююз31099100 0.2 1018375
12:00+2ююз411100100 0.3 1018381
15:00+2юз41199100 1.2 1018402
18:00+1ююз41198100 0.6 1019377
21:00+1ююз41198100 0.6 1020405
26 января, вт
вт2600:00−1ююз51196100 0.0 1020540
03:00−1ююз41095100 0.0 1021611
06:00−3ююз4895100 0.0 1021526
09:00−3ююз3895100 0.1 1020522
12:00−3ююз4792100 0.1 1021618
15:00−3ю3794100 0.1 1020480
18:00−4ю3795100 0.1 1020327
21:00−3ю3996100 0.2 1019415
27 января, ср
ср2700:00−1ю41095100 0.1 1019586
03:00−2ю41094100 0.1 1018471
06:00−4ю41094100 0.1 1017539
09:00−2ю41194100 0.3 1016673
12:00−1ю61391100 0.1 1014907
15:00−1ю61396100 2.7 1012875
18:00+1ю61493100 0.7 1011989
21:00+1ююз51493100 0.8 10091028
28 января, чт
чт2800:00+1юз51295100 0.4 1010933
03:00−1зюз41291100 0.5 1010882
06:00−5зюз3993100 0.0 1011276
09:00−7юз2597100 0.0 1013107
12:00−4юз249583 0.0 1015239
15:00−5ю119785 0.0 101521
18:00−7ююв129682 0.0 101621
21:00−5вюв229590 0.0 101648
29 января, пт
пт2900:00−3вюв3697100 0.1 1015229
03:00−3юв3796100 0.5 1014338
06:00−7юв3895100 0.0 1014307
09:00−7юв4894100 0.0 1013337
12:00−6юв4993100 0.0 1012365
15:00−6юв4993100 0.0 1011393
18:00−7юв41094100 0.0 1010385
21:00−7юв3994100 0.0 1009356